Location: El Abasto
(10.3790°N, 67.5897°W)
Time: 19:25:16
(UTC+00:00)

YAOGAN 1 - Pass Details

Date: 19 May 2024
Orbit: 611 x 614 km, 97.8° (Epoch: 12 June)

Event Time Altitude Azimuth Distance (km) Brightness Sun altitude
Exits shadow 23:38:47 - 171° (S) 2,769 5.6 -12.9°
Reaches altitude 10° 23:40:43 10° 173° (S) 1,967 4.8 -13.3°
Maximum altitude 23:45:00 77° 259° (WSW) 632 2.7 -14.3°
Drops below altitude 10° 23:49:16 10° 345° (NNW) 1,965 5.7 -15.3°
Sets 23:51:27 0° 346° (NNW) 2,869 6.6 -15.7°
